Location: Newark
(49.8969°N, 3.3422°E)
Time: 06:30:17
(UTC+00:00)

Envisat - Pass Details

Date: 14 December 2019
Orbit: 764 x 766 km, 98.1° (Epoch: 27 January)

Event Time Altitude Azimuth Distance (km) Brightness Sun altitude
Rises 16:49:01 0° 143° (SE) 3,224 6.1 -9.7°
Reaches altitude 10° 16:51:24 10° 137° (SE) 2,302 5.3 -10.0°
Maximum altitude 16:56:10 43° 67° (ENE) 1,079 3.3 -10.7°
Drops below altitude 10° 17:00:58 10° 357° (N) 2,317 5.3 -11.4°
Sets 17:03:22 0° 351° (N) 3,248 6.1 -11.8°
